Retour au catalogue

STARLINK-5613

ActifCommunicationsVLEO
NORAD 55752·PAYLOAD·🇺🇸 United States

Lancé Mar 3, 2023 depuis Vandenberg Space Force Base

Loading…

Prochains Passages (prochaines 24 heures)

TLE

FraisSource: CelesTrak SupGP

Époque: Sep 14, 2026, 20:44 UTC

1 55752C 23028M   26257.86437500 -.00028051  00000+0 -23510-2 0  2571
2 55752  70.0005 127.3456 0002560 271.9601 319.7768 14.98341199    16

Suivez STARLINK-5613 en temps réel avec AllMySat

Download on the App Store